GEFSCGP_con_prob3kmehi_348.txt.gz
EHI
0 0 0 0 0 0 0 0 0 0 0 0 0 0 0 1 1 1 0 1 2 3 3 2 3 3 3 3 3 3 3 3 2 2 3 3 3 3 3 3 2 1 0 0
0 0 0 0 0 0 0 0 0 0 0 0 0 0 0 0 0 0 0 1 2 3 3 3 3 3 3 3 3 3 3 3 1 1 2 3 3 3 2 2 2 2 2 1
0 0 0 0 0 0 0 0 0 0 0 0 0 0 0 0 0 0 0 0 1 3 4 4 4 3 3 3 3 3 3 2 1 1 1 2 2 2 2 2 3 3 3 3
0 0 0 0 0 0 0 0 0 0 0 0 0 0 0 0 0 0 1 1 1 2 4 5 4 3 3 3 3 3 3 1 1 2 2 3 3 3 3 3 3 3 4 4
0 0 0 0 0 0 0 0 0 0 0 0 0 0 0 0 0 0 0 1 1 2 4 5 5 4 3 3 3 3 3 1 1 2 3 3 3 4 4 4 3 3 3 3
0 0 0 0 0 0 0 0 0 0 0 0 0 0 0 0 0 0 0 0 1 2 3 5 7 6 4 3 4 3 3 3 2 3 3 3 4 4 5 4 3 3 3 3
0 0 0 0 0 0 0 0 0 0 0 0 0 0 0 0 0 0 0 0 1 2 3 5 7 7 6 5 5 4 4 4 4 4 3 4 5 6 6 5 5 4 4 4
0 0 0 0 0 0 0 0 0 0 0 0 0 0 0 0 0 0 0 0 1 3 5 6 6 8 8 7 7 6 4 5 5 4 3 4 7 7 7 7 7 8 7 6
0 0 0 0 0 0 0 0 0 0 0 0 0 0 0 0 0 0 0 0 0 3 5 6 5 7 8 7 7 6 5 5 5 3 3 4 6 9 9 8 9 10 10 8
0 0 0 0 0 0 0 0 0 0 0 0 0 0 0 0 0 1 1 1 1 2 4 5 4 5 6 6 6 6 6 6 5 4 3 3 6 9 10 9 9 9 9 9
0 0 0 0 0 0 0 0 0 0 0 0 0 0 0 0 0 1 2 1 1 3 5 5 5 6 6 8 9 8 7 7 7 6 4 4 6 10 11 9 8 7 8 9
0 0 0 0 0 0 0 0 0 0 0 0 0 0 0 1 1 1 2 2 2 2 4 6 8 8 9 11 13 12 10 9 10 9 8 6 8 12 13 11 8 7 6 7
0 0 0 0 0 0 0 0 0 0 0 0 0 0 1 2 3 3 4 5 4 2 4 6 7 8 9 13 17 17 14 13 13 13 11 9 9 11 13 12 10 8 7 7
0 0 0 0 0 0 0 0 0 0 0 0 0 0 1 2 4 5 7 9 7 5 5 5 5 5 7 12 18 20 19 16 15 14 14 12 10 10 11 11 10 9 8 8
0 0 0 0 0 0 0 0 0 0 0 0 0 0 1 2 4 5 8 10 10 7 5 4 3 3 6 11 15 20 21 19 16 15 15 14 12 11 11 10 9 8 8 7
0 0 0 0 0 0 0 0 1 1 1 0 0 0 1 2 4 5 7 9 9 7 6 4 3 3 6 9 12 18 21 19 16 15 15 14 14 13 11 8 7 7 7 6
0 0 0 0 0 0 1 1 2 2 2 1 1 1 1 2 3 3 5 7 7 6 5 4 3 4 5 7 11 15 18 17 15 13 13 14 14 13 11 8 6 7 7 6
0 0 0 0 0 0 0 1 2 3 3 3 2 2 2 2 2 2 3 4 4 4 4 5 5 5 5 7 10 13 15 15 13 11 11 12 12 10 8 6 6 6 7 6
0 0 0 0 0 0 0 0 1 1 2 3 3 3 2 2 1 1 2 3 3 3 5 6 6 5 5 9 12 13 13 13 12 11 10 10 10 7 4 4 5 6 6 6
0 0 0 0 0 0 0 0 0 0 1 2 3 3 3 2 1 2 3 4 4 5 6 6 5 4 5 9 12 13 13 13 13 12 10 9 8 5 3 3 4 5 6 7
0 0 0 0 0 0 0 0 0 0 1 2 3 4 4 3 2 3 6 7 6 6 6 6 5 4 5 8 11 13 13 13 13 12 10 9 8 6 4 4 4 5 6 7
0 0 0 0 0 0 0 0 1 1 1 3 4 4 5 4 4 6 8 9 7 6 6 6 5 4 4 6 9 11 11 11 12 12 10 8 8 7 6 6 6 6 7 7
0 0 0 0 0 0 0 0 0 1 2 3 4 5 6 6 7 8 9 9 7 6 6 5 4 3 2 4 6 8 8 9 11 11 9 8 8 7 7 8 8 8 8 9
0 0 0 0 0 0 0 0 0 0 1 2 3 5 7 8 8 9 9 8 7 5 5 4 3 3 3 4 6 6 7 8 9 9 8 8 7 6 6 7 8 8 8 10
0 0 0 0 0 0 0 0 0 0 0 1 3 4 6 7 7 7 7 6 4 2 2 2 3 3 5 6 6 6 7 7 7 6 6 6 6 5 4 4 4 4 5 7
0 0 0 0 0 0 0 0 0 0 0 1 2 3 3 4 5 5 5 4 2 1 0 1 2 3 5 7 6 5 6 7 6 4 4 5 6 5 4 3 2 1 2 3

GEFSCGP_con_prob3kmehi_354.txt.gz
EHI
0 0 0 0 0 0 0 0 0 0 0 0 0 0 1 2 3 4 6 8 8 7 4 2 1 1 3 7 10 11 11 12 12 12 12 9 6 5 5 4 3 3 2 1
0 0 0 0 0 0 0 0 0 0 0 0 0 0 0 1 1 2 4 6 7 8 7 6 5 5 6 8 10 11 12 13 13 12 11 9 6 4 3 2 2 2 1 1
0 0 0 0 0 0 0 0 0 0 0 0 0 0 0 0 0 0 1 3 5 8 10 12 11 11 11 10 8 9 11 13 13 12 10 9 7 4 2 1 1 1 1 1
0 0 0 0 0 0 0 0 0 0 0 0 0 0 0 1 0 0 1 2 4 6 9 12 13 14 14 11 7 7 11 14 14 12 11 10 8 5 3 2 1 0 0 1
0 0 0 0 0 0 0 0 0 0 0 0 0 0 0 0 0 1 2 4 5 5 6 8 10 12 12 11 9 10 13 15 16 15 13 13 11 8 6 4 2 1 1 1
0 0 0 0 0 0 0 0 0 0 0 0 0 0 0 0 0 1 4 6 7 6 6 8 9 10 11 12 14 15 16 17 20 20 18 16 14 12 10 6 4 3 3 2
0 0 0 0 0 0 0 0 0 0 0 0 0 0 0 0 2 3 5 6 8 9 9 10 10 10 10 12 14 15 17 19 23 26 24 19 16 13 10 8 7 7 6 5
0 0 0 0 0 0 0 0 0 0 0 0 0 0 0 2 4 5 6 6 8 10 11 11 11 10 10 10 11 12 13 16 21 27 29 25 18 12 9 9 9 10 9 9
0 0 0 0 0 0 0 0 0 0 0 0 0 0 0 2 5 7 7 6 7 9 10 10 9 9 9 9 8 9 10 13 17 22 27 25 20 14 11 11 11 10 10 10
0 0 0 0 0 0 0 0 0 0 0 0 0 0 0 2 5 6 6 7 7 7 8 9 9 9 9 9 9 11 14 17 17 19 20 19 17 15 14 15 13 12 12 12
0 0 0 0 0 0 0 0 0 0 0 0 0 0 0 2 3 3 4 5 7 8 10 12 12 10 10 10 12 15 19 21 21 19 18 16 15 14 15 18 19 18 17 16
0 0 0 0 0 0 0 0 0 0 0 0 0 0 0 1 2 2 2 4 7 11 14 17 18 16 14 13 14 17 19 21 22 21 20 19 16 15 17 19 20 21 20 19
0 0 0 0 0 0 0 0 0 0 0 0 0 0 1 3 4 3 2 4 6 10 15 21 26 26 23 20 17 16 17 20 22 23 23 21 19 19 20 21 20 20 20 18
0 0 0 0 0 0 0 0 0 0 0 0 0 0 1 3 4 4 4 5 6 8 14 22 31 34 32 28 23 19 19 21 22 22 23 21 19 21 23 24 24 23 20 17
0 0 0 0 0 0 0 0 0 0 0 0 0 0 1 2 4 5 6 7 7 9 12 18 28 35 34 30 26 24 23 23 22 21 20 18 19 23 27 29 28 26 22 19
0 0 0 0 0 0 0 0 0 0 0 0 0 1 1 2 3 5 7 9 10 11 13 15 21 28 29 27 26 26 24 23 22 21 20 19 20 25 30 32 31 28 24 22
0 0 0 0 0 0 0 0 0 0 0 1 2 3 2 3 4 5 8 11 12 12 13 15 16 19 22 23 25 26 24 22 22 21 21 22 25 27 30 33 34 30 26 23
0 0 0 0 0 0 0 0 0 0 2 4 5 5 4 3 3 4 6 10 12 12 11 14 15 15 18 21 24 25 24 22 21 20 20 22 26 28 28 31 32 30 26 25
0 0 0 0 0 0 0 0 0 1 3 5 6 7 6 3 2 3 6 9 10 9 9 12 15 16 17 19 21 23 23 21 19 18 19 21 23 26 28 28 28 27 25 25
0 0 0 0 0 0 1 0 0 2 4 6 7 7 6 4 4 6 7 9 10 9 9 12 15 17 17 18 19 20 18 16 15 16 18 20 22 25 27 26 23 22 22 22
0 0 0 0 0 1 2 1 1 3 7 8 8 7 7 7 8 8 8 10 11 11 11 12 15 17 18 19 21 20 17 14 12 13 17 20 22 24 24 23 21 20 19 18
0 0 0 1 2 3 4 3 4 7 10 11 10 8 8 8 8 7 9 11 12 13 13 13 14 16 19 21 22 22 18 14 13 14 17 20 21 21 20 20 21 21 20 17
0 1 2 4 5 6 6 7 9 10 11 11 10 8 7 5 5 7 10 12 13 13 13 13 14 17 20 21 20 19 18 16 17 18 19 19 19 19 17 17 19 20 19 18
1 2 3 5 6 7 8 10 12 12 10 9 8 6 5 4 5 8 11 13 13 13 13 14 17 19 21 20 17 15 16 18 19 20 18 17 16 16 15 14 15 16 17 17
2 3 4 4 5 6 7 9 11 10 8 7 7 6 5 5 7 9 11 12 12 13 13 14 16 18 19 18 15 14 15 17 19 18 15 14 14 13 12 11 11 12 13 14
3 4 4 2 2 4 6 8 8 8 7 7 7 7 6 6 7 9 10 11 11 11 11 12 14 15 17 17 15 13 14 16 16 15 14 13 13 13 12 11 10 9 10 10

GEFSCGP_con_prob3kmehi_360.txt.gz
EHI
0 0 1 2 2 1 0 0 0 0 0 0 0 0 1 2 3 3 2 2 4 7 13 18 21 24 33 42 43 39 39 37 31 25 19 13 9 9 10 14 20 21 18 16
0 0 0 1 1 0 0 0 0 0 0 0 0 0 1 2 3 3 3 2 4 8 15 21 25 28 33 40 42 40 41 40 35 30 25 17 12 10 9 13 20 21 16 14
0 0 0 0 0 0 0 0 0 0 0 0 0 0 1 2 3 4 4 3 4 9 14 20 26 29 33 37 39 40 43 42 38 33 26 19 15 13 13 17 22 22 17 15
0 0 0 0 0 0 0 0 0 0 0 0 0 0 2 3 5 5 6 6 7 10 14 19 25 29 31 33 36 40 43 43 40 33 25 19 17 17 19 23 25 25 23 22
0 0 0 0 0 0 0 0 0 0 0 0 0 0 1 4 6 7 7 8 9 12 15 19 25 29 29 30 34 40 46 47 43 37 29 22 18 18 20 24 28 29 29 29
0 0 0 0 0 0 0 0 0 0 0 0 0 0 1 3 6 8 9 10 11 12 14 19 25 29 30 29 34 42 47 49 47 42 35 27 23 20 20 23 28 30 30 30
0 0 0 0 0 0 0 0 0 0 0 0 0 0 1 4 6 8 10 12 13 12 14 17 23 28 30 31 36 44 48 49 48 44 39 34 29 25 23 23 26 27 27 27
0 0 0 0 0 0 0 0 0 0 0 0 0 0 2 5 6 6 9 13 15 15 15 17 22 27 29 31 37 45 49 49 47 45 42 40 36 31 27 26 25 27 29 29
0 0 0 0 0 0 0 0 0 0 0 0 0 1 3 6 6 5 8 12 16 17 17 19 23 26 28 30 35 43 49 50 47 44 42 41 39 36 34 31 27 28 30 30
0 0 0 0 0 0 0 0 0 0 0 0 0 1 4 6 6 6 7 11 15 18 19 21 26 28 27 27 32 40 46 48 46 43 40 39 40 40 39 36 31 28 29 29
0 0 0 0 0 0 0 0 0 0 0 0 0 1 3 6 6 6 6 9 12 16 19 23 27 29 27 25 30 37 42 45 45 44 41 40 43 44 42 39 35 31 28 28
0 0 0 0 0 0 0 0 0 0 0 0 0 1 4 7 7 6 5 6 9 12 17 21 26 30 30 29 31 35 39 43 44 43 40 39 41 43 41 39 36 33 30 27
0 0 0 0 0 0 0 0 0 0 0 0 0 1 5 8 8 6 5 5 7 10 16 23 30 36 39 39 38 38 40 42 43 41 37 34 36 40 40 37 34 34 30 26
0 0 0 0 0 0 0 0 0 0 0 0 0 1 4 7 6 6 5 6 9 12 19 28 38 45 49 51 49 45 43 42 43 41 37 33 34 37 37 34 31 32 29 25
0 0 0 0 0 0 0 0 0 0 0 0 0 1 3 5 5 5 7 9 13 16 21 32 44 50 54 56 53 48 44 43 44 44 40 36 35 35 33 32 32 31 29 25
0 0 0 0 0 0 0 0 0 0 0 0 0 1 3 4 5 7 10 13 16 18 21 32 44 49 51 50 46 43 42 43 46 47 42 38 36 34 31 31 33 33 30 28
0 0 0 0 0 0 0 0 0 0 0 0 0 0 1 3 5 9 12 15 18 20 23 31 40 44 43 40 38 38 39 41 45 47 43 38 34 32 30 30 33 34 32 32
0 0 0 0 0 0 0 0 0 0 1 0 0 1 2 4 8 12 13 14 18 22 26 30 34 37 37 34 34 35 36 38 41 44 42 38 34 32 32 32 34 35 33 34
0 0 0 0 0 0 0 0 0 0 1 1 1 1 3 5 10 14 15 15 18 23 27 28 29 31 33 33 33 33 34 37 40 41 40 37 35 34 34 34 35 35 33 31
0 0 0 0 0 0 1 1 0 1 3 4 3 4 5 7 12 17 19 19 20 23 26 26 26 27 30 32 31 30 33 38 40 40 38 37 36 35 35 35 35 34 31 29
0 0 0 0 0 1 2 3 3 6 9 10 8 9 10 13 17 21 21 22 22 23 22 23 24 25 28 30 30 29 32 35 38 39 37 36 36 35 34 35 35 34 32 29
0 0 1 1 1 2 4 5 7 10 13 13 12 14 17 19 22 22 21 22 22 20 19 20 23 26 27 28 29 30 31 32 34 37 37 36 36 34 32 34 35 34 32 30
1 1 2 3 3 5 6 7 8 10 11 11 11 12 16 20 21 22 22 22 20 18 17 19 21 24 26 27 28 30 32 32 34 36 37 37 36 33 31 31 31 29 27 26
3 3 4 5 6 7 6 6 7 9 9 10 9 8 10 15 19 20 22 23 20 18 18 19 21 22 24 26 27 28 31 33 34 35 37 35 32 29 28 27 24 22 22 22
5 5 6 7 8 8 6 5 5 7 9 8 8 7 9 14 19 21 22 23 22 20 20 22 22 22 23 24 25 26 28 31 32 32 32 29 24 22 22 21 18 16 17 17
6 6 7 8 9 8 6 4 4 6 7 7 7 9 11 16 22 24 23 23 23 22 22 23 22 22 22 23 24 24 25 28 30 29 28 24 20 17 17 16 13 12 12 11

GEFSCGP_con_prob3kmehi_366.txt.gz
EHI
0 0 0 0 0 0 0 0 0 0 1 1 1 2 2 3 6 9 10 11 8 5 6 13 20 24 25 21 13 8 7 8 9 9 9 8 6 5 5 6 6 7 8 9
0 0 0 0 0 0 0 0 0 0 0 1 1 2 2 3 5 8 11 13 11 7 8 15 22 25 27 25 19 13 10 9 8 8 7 7 6 5 5 6 6 7 8 9
0 0 0 0 0 0 0 0 0 0 0 0 1 1 1 1 3 6 10 13 14 11 12 17 23 27 28 28 24 17 13 11 10 9 9 9 7 5 5 5 6 7 7 8
0 0 0 0 0 0 0 0 0 0 0 0 0 0 0 1 2 4 7 11 13 14 16 19 23 26 28 28 24 17 12 11 10 10 10 11 9 7 5 5 6 6 6 6
0 0 0 0 0 0 0 0 0 0 0 0 0 0 0 0 1 3 4 6 11 14 18 19 20 23 25 27 25 17 12 10 10 9 8 9 8 7 6 5 5 5 5 5
0 0 0 0 0 0 0 0 0 0 0 0 0 0 0 1 2 3 4 6 10 15 18 17 16 18 23 28 28 21 15 13 12 10 9 7 6 6 6 5 5 6 6 7
0 0 0 0 0 0 0 0 0 0 0 0 0 0 1 4 5 5 7 9 13 16 18 17 14 13 19 27 30 25 19 17 15 13 12 9 7 7 7 7 8 9 10 11
0 0 0 0 0 0 0 0 0 0 0 0 0 0 2 5 6 7 10 13 14 15 16 15 13 10 14 22 28 27 22 18 15 14 13 11 9 9 9 10 11 13 13 13
0 0 0 0 0 0 0 0 0 0 0 0 0 0 2 4 5 6 10 13 12 11 12 11 10 9 12 19 25 26 23 17 14 14 13 12 11 10 11 12 12 12 12 12
0 0 0 0 0 0 0 0 0 0 0 0 0 0 1 2 3 4 8 11 10 10 9 8 9 12 16 19 22 24 23 20 18 16 14 13 12 12 12 12 11 10 10 10
0 0 0 0 0 0 0 0 0 0 0 0 0 0 0 1 1 3 5 7 8 7 7 7 10 15 18 18 20 24 25 23 21 18 16 14 13 13 12 11 8 6 7 8
0 0 0 0 0 0 0 0 0 0 0 0 0 0 1 3 3 2 3 4 5 5 6 8 10 13 16 15 17 23 25 24 24 21 18 16 15 14 12 9 5 3 4 5
0 0 0 0 0 0 0 0 0 0 0 0 0 1 3 6 6 4 4 4 5 7 9 10 9 10 12 12 15 20 23 24 25 24 22 21 18 14 11 8 6 4 3 2
0 0 0 0 0 0 0 0 0 0 0 0 0 1 4 7 7 5 4 4 7 12 15 13 10 9 10 11 15 19 21 23 23 23 23 22 19 14 11 9 9 7 4 3
0 0 0 0 0 0 0 0 0 0 0 0 0 1 2 5 5 3 3 6 11 18 20 16 12 10 9 11 16 20 22 21 20 19 19 20 19 16 13 12 11 10 7 5
0 0 0 0 0 0 0 0 0 0 0 0 0 1 2 4 4 2 3 8 15 20 20 16 13 11 10 12 16 20 21 19 17 16 16 18 19 18 15 13 12 10 7 6
0 0 0 0 0 0 0 0 0 0 0 0 1 3 5 6 4 1 2 7 13 18 17 14 14 13 12 13 15 18 19 19 16 14 15 18 19 19 17 14 13 10 8 7
0 0 0 0 0 0 0 0 0 0 0 1 3 6 8 8 6 3 3 5 10 13 13 14 15 15 14 14 15 17 18 17 15 14 16 17 19 20 19 17 14 12 9 8
0 0 0 0 0 0 0 0 1 1 1 2 6 9 9 7 7 6 6 7 9 10 12 14 15 15 14 13 15 17 17 16 14 14 14 16 18 20 21 20 17 14 12 11
0 0 0 0 0 0 1 1 2 2 1 2 6 8 6 4 4 7 10 11 11 11 11 13 13 13 12 12 15 17 17 15 13 13 13 13 16 19 21 20 18 15 14 13
0 0 0 0 0 1 2 3 3 2 2 3 4 4 3 3 4 6 10 11 11 10 11 12 12 12 12 13 16 18 17 15 14 14 14 15 18 19 19 18 16 14 14 14
1 0 0 0 1 1 3 3 3 3 4 4 2 2 4 6 7 8 10 11 11 11 13 13 13 13 13 14 16 17 16 16 15 15 15 17 19 19 17 15 14 14 14 14
2 1 1 0 1 1 2 2 2 4 5 5 4 5 7 8 10 13 13 13 13 14 16 16 16 15 14 14 15 15 15 16 16 14 13 14 15 16 15 14 14 15 14 13
2 2 2 1 1 3 4 3 3 3 5 7 8 9 9 9 10 13 15 15 16 16 16 16 16 15 13 12 12 12 12 13 13 11 10 10 11 13 13 13 12 11 10 9
1 1 3 2 2 3 5 5 4 4 6 9 11 11 10 10 10 11 13 15 16 16 16 15 14 13 12 11 10 9 10 10 10 9 8 8 9 11 13 11 9 6 4 4
0 1 2 2 1 2 3 4 4 4 7 11 12 10 10 10 10 10 12 14 16 16 16 16 14 12 12 11 9 8 9 10 10 9 7 7 8 11 12 11 7 3 1 1

GEFSCGP_con_prob3kmehi_372.txt.gz
EHI
0 0 0 0 0 0 0 0 0 0 0 0 0 0 0 1 2 3 2 2 1 1 1 0 0 1 2 2 1 3 5 5 4 3 3 3 4 4 5 5 5 5 5 4
0 0 0 0 0 0 0 0 0 0 0 0 0 0 0 1 2 2 1 1 0 1 1 1 1 2 2 2 3 3 4 4 3 3 3 3 3 4 4 5 6 6 6 5
0 0 0 0 0 0 0 0 0 0 0 0 0 0 0 0 1 1 0 0 0 0 0 1 3 5 5 6 6 5 4 3 2 2 3 4 4 4 4 4 5 6 6 5
0 0 0 0 0 0 0 0 0 0 0 0 0 0 0 0 0 0 0 0 0 0 0 2 5 8 9 9 8 6 4 2 1 2 4 5 5 4 3 3 3 3 4 4
0 0 0 0 0 0 0 0 0 0 0 0 0 0 0 0 0 0 0 0 0 0 1 3 7 9 10 10 8 6 4 2 1 3 4 4 4 3 2 1 1 1 1 2
0 0 0 0 0 0 0 0 0 0 0 0 0 0 0 0 1 1 1 0 0 1 2 4 7 9 10 10 9 6 4 2 2 4 5 4 3 3 1 1 1 1 1 1
0 0 0 0 0 0 0 0 0 0 0 0 0 0 0 0 1 2 1 0 0 1 2 3 5 6 8 9 9 7 4 2 2 4 6 5 4 3 3 2 2 2 2 1
0 0 0 0 0 0 0 0 0 0 0 0 0 0 0 0 1 2 1 0 0 1 2 3 4 5 6 7 7 6 4 3 3 5 7 6 5 4 3 3 3 3 3 3
0 0 0 0 0 0 0 0 0 0 0 0 0 0 0 0 1 1 0 0 0 0 1 3 5 6 6 7 6 5 3 3 5 7 7 7 6 5 4 4 3 3 4 4
0 0 0 0 0 0 0 0 0 0 0 0 0 0 0 0 0 0 0 0 0 0 1 2 3 4 6 7 7 6 4 4 6 6 6 5 6 6 6 5 4 3 3 4
0 0 0 0 0 0 0 0 0 0 0 0 0 0 0 0 0 0 0 0 0 0 1 1 1 2 4 7 8 8 7 7 7 5 4 4 5 6 6 5 4 3 3 3
0 0 0 0 0 0 0 0 0 0 0 0 0 0 0 0 0 0 0 0 0 0 0 0 1 2 3 5 6 7 8 8 7 5 4 4 4 5 4 4 3 3 3 3
0 0 0 0 0 0 0 0 0 0 0 0 0 0 0 0 0 0 0 1 1 0 0 0 1 2 3 3 4 5 6 7 7 6 6 5 4 4 4 4 4 3 3 3
0 0 0 0 0 0 0 0 0 0 0 0 0 0 0 0 0 0 1 2 2 1 0 0 0 1 3 4 4 4 6 7 8 8 6 5 4 3 3 5 5 4 3 3
0 0 0 0 0 0 0 0 0 0 0 0 0 0 0 0 0 1 2 3 3 2 1 0 0 1 4 6 5 5 6 7 8 7 5 3 3 3 3 5 6 5 4 4
0 0 0 0 0 0 0 0 0 0 0 0 0 0 0 0 0 1 3 4 4 3 1 1 1 1 3 5 6 6 6 6 6 6 5 3 2 3 3 4 6 7 6 5
0 0 0 0 0 0 0 0 0 1 1 1 0 0 1 1 1 2 4 5 5 3 1 1 1 1 1 3 6 7 6 5 5 6 6 5 4 3 3 4 7 9 8 6
0 0 0 0 0 0 0 0 1 1 2 2 1 1 3 4 3 4 4 5 4 2 0 1 2 2 1 2 4 6 6 5 4 5 6 6 5 4 5 6 8 8 8 7
0 0 0 0 0 0 0 0 0 1 1 2 3 4 5 5 3 3 3 2 2 2 2 3 3 3 3 3 5 6 5 4 4 4 5 6 6 6 7 8 8 7 6 6
0 0 0 0 0 0 0 1 1 1 0 1 4 7 6 3 1 1 1 1 2 3 4 4 3 3 4 5 6 6 6 4 4 4 5 6 6 6 6 7 6 5 5 5
0 0 0 0 0 0 1 2 2 1 0 1 3 6 5 2 0 1 2 2 3 5 5 4 3 3 4 4 5 7 7 5 4 4 5 6 6 6 5 4 4 3 4 6
0 0 0 0 0 0 1 3 2 1 0 0 2 3 3 2 0 1 2 4 5 5 5 4 4 4 4 4 5 7 7 5 4 5 6 6 6 6 5 4 4 4 5 6
0 0 0 0 0 0 0 1 1 0 0 0 1 1 1 1 0 1 3 5 6 6 6 6 5 5 5 6 6 7 7 7 6 6 6 6 6 6 6 5 5 5 6 6
0 0 0 0 0 0 0 0 0 1 1 1 2 2 1 0 1 2 4 6 6 6 6 6 6 6 6 6 6 7 8 9 9 8 7 7 6 5 6 6 6 6 5 5
0 0 0 0 0 0 0 0 1 2 2 2 3 3 1 0 1 3 4 5 6 6 5 5 6 7 7 7 7 8 9 10 10 9 9 8 6 6 6 6 5 4 4 4
0 0 0 0 0 0 0 1 2 3 3 4 4 4 2 1 2 3 4 5 6 6 5 5 7 9 8 7 8 9 9 10 10 10 9 8 7 6 6 6 5 4 3 3

GEFSCGP_con_prob3kmehi_378.txt.gz
EHI
0 0 0 0 0 0 0 0 0 0 0 0 0 0 0 0 1 2 3 3 5 7 7 6 5 4 5 7 9 10 10 12 14 15 15 14 13 12 11 10 9 7 7 7
0 0 0 0 0 0 0 0 0 0 0 0 0 0 0 0 1 2 2 3 4 6 6 6 5 5 6 8 10 11 12 15 16 16 16 15 14 13 12 11 10 8 6 6
0 0 0 0 0 0 0 0 0 0 0 0 0 0 0 0 1 1 1 2 3 4 5 6 6 7 8 10 12 13 14 16 17 16 15 14 13 11 11 11 11 9 7 6
0 0 0 0 0 0 0 0 0 0 0 0 0 0 0 0 0 1 2 3 3 2 3 6 8 9 10 10 12 15 15 14 15 16 15 13 10 9 9 10 10 9 8 7
0 0 0 0 0 0 0 0 0 0 0 0 0 0 0 0 0 1 2 3 3 4 5 7 9 11 9 8 10 13 14 15 16 17 17 14 9 7 8 9 8 7 7 8
0 0 0 0 0 0 0 0 0 0 0 0 0 0 0 0 1 2 2 2 4 8 8 8 9 10 9 8 9 13 16 18 18 18 18 15 10 7 9 9 7 6 7 8
0 0 0 0 0 0 0 0 0 0 0 0 0 0 0 1 1 1 2 3 5 8 9 8 7 9 11 12 13 17 21 22 22 21 20 16 11 10 10 10 8 8 8 9
0 0 0 0 0 0 0 0 0 0 0 0 0 0 0 0 0 0 1 3 5 6 7 6 5 8 10 12 16 21 24 26 26 26 24 21 16 13 12 10 9 8 9 9
0 0 0 0 0 0 0 0 0 0 0 0 0 0 0 0 0 0 0 2 4 5 5 4 4 5 7 8 13 19 23 26 28 27 26 25 22 18 15 13 11 9 10 11
0 0 0 0 0 0 0 0 0 0 0 0 0 0 0 0 0 0 0 1 3 4 4 3 2 3 4 5 10 18 22 25 26 26 25 25 25 23 20 16 13 13 13 12
0 0 0 0 0 0 0 0 0 0 0 0 0 0 0 0 0 0 0 2 4 4 3 1 1 1 2 4 9 15 20 23 24 25 25 25 25 25 24 20 17 16 14 12
0 0 0 0 0 0 0 0 0 0 0 0 0 0 0 0 0 0 0 3 6 5 2 2 2 3 4 6 8 11 17 22 25 27 27 27 26 26 24 22 20 19 15 12
0 0 0 0 0 0 0 0 0 0 0 0 0 0 0 0 0 0 1 3 7 7 5 6 8 8 8 10 11 12 15 20 24 27 29 29 28 25 22 21 21 20 16 14
0 0 0 0 0 0 0 0 0 0 0 0 0 0 0 1 1 1 2 4 8 10 9 10 13 13 12 14 14 14 14 17 21 25 26 26 24 22 20 19 19 18 15 13
0 0 0 0 0 0 0 0 0 0 0 0 0 0 1 2 3 3 4 6 8 10 10 12 14 15 13 13 13 13 13 16 19 21 21 19 18 17 17 16 15 14 12 10
0 0 0 0 0 0 0 0 0 0 0 0 0 0 1 2 4 5 7 8 9 10 10 11 13 15 14 12 12 14 16 20 22 20 17 15 14 13 13 13 12 12 11 9
0 0 0 0 0 0 0 0 0 0 0 0 1 1 2 4 6 7 8 9 10 12 13 13 13 14 13 14 17 19 21 24 25 22 18 16 14 13 11 10 11 12 12 12
0 0 0 0 0 0 0 0 0 1 1 1 2 3 5 8 9 9 9 10 11 13 15 15 15 13 13 15 18 21 22 23 22 22 21 19 17 16 14 12 12 13 13 13
0 0 0 0 0 0 0 0 0 1 1 2 2 4 8 10 9 9 11 13 14 15 17 18 17 16 15 15 16 17 17 18 18 20 22 21 19 17 15 13 12 12 12 11
1 1 0 0 0 0 0 0 0 0 1 1 3 6 9 8 6 9 13 16 18 18 20 21 21 21 19 17 16 15 14 14 16 18 18 17 15 13 12 11 10 10 9 9
0 0 0 0 0 0 0 0 0 0 1 2 5 8 9 7 6 10 15 18 18 21 24 24 24 23 20 16 16 16 14 13 14 16 15 13 11 9 9 9 9 9 9 9
0 0 0 0 0 0 0 0 0 1 2 4 8 11 10 10 10 12 16 18 18 19 21 21 21 20 17 14 14 15 14 13 13 14 14 12 10 8 7 8 9 9 9 10
1 1 0 0 0 0 0 0 0 2 4 6 10 12 12 13 13 14 17 17 17 17 16 15 16 16 14 12 12 12 12 12 12 14 14 12 10 8 7 8 8 8 8 9
1 2 1 0 0 0 0 0 1 4 6 7 10 13 14 16 16 17 17 17 16 15 13 14 16 17 16 14 11 10 10 11 13 14 14 13 11 10 9 8 7 7 8 8
1 1 0 0 0 0 1 1 3 5 7 8 10 13 15 17 19 20 19 16 14 14 13 15 18 19 19 16 12 9 10 11 14 15 14 12 12 12 11 9 6 5 7 8
0 0 0 0 0 1 2 2 4 6 6 8 11 13 14 16 19 22 22 17 13 13 13 15 17 20 21 18 13 11 11 12 14 15 13 12 11 12 12 10 6 4 5 5

GEFSCGP_con_prob3kmehi_384.txt.gz
EHI
2 2 2 1 0 0 0 0 0 0 0 0 0 0 0 1 5 7 6 8 13 16 15 15 15 16 18 26 35 39 38 38 37 34 28 24 22 21 20 22 24 22 17 14
2 2 1 0 0 0 0 0 0 0 0 0 0 0 1 3 6 8 8 10 13 16 17 17 17 17 20 27 34 37 39 41 40 34 29 27 26 25 23 24 26 24 19 15
1 1 1 0 0 0 0 0 0 0 0 1 0 1 3 6 8 8 9 10 13 17 20 22 22 22 23 26 32 36 43 48 45 38 31 28 28 27 25 26 29 29 23 19
0 0 0 0 0 0 0 0 0 0 0 0 0 1 5 8 9 8 7 9 12 16 20 23 24 25 24 24 30 40 49 53 51 44 35 30 27 25 25 28 32 33 29 24
0 0 0 0 0 0 0 0 0 0 0 0 0 1 5 8 9 8 8 8 10 13 17 20 23 24 23 23 29 42 54 57 54 47 41 35 30 28 29 32 35 37 35 32
0 0 0 0 0 0 0 0 0 0 0 0 0 1 4 7 9 10 9 8 8 11 14 18 20 22 23 24 29 42 56 60 56 50 45 41 37 35 34 35 37 39 38 37
0 0 0 0 0 0 0 0 0 1 0 0 0 1 3 7 10 10 9 7 6 8 11 15 18 20 23 28 33 44 56 62 59 54 50 48 44 39 38 38 39 39 37 36
0 0 0 0 0 0 0 0 0 0 0 0 0 1 5 7 8 7 5 4 4 6 8 11 13 16 21 30 38 46 55 61 60 56 53 51 48 42 39 40 39 37 35 34
0 0 0 0 0 0 0 0 0 0 0 0 0 1 4 6 5 4 2 2 3 5 7 8 9 12 18 29 39 47 55 59 57 54 51 50 48 45 42 41 38 36 36 36
0 0 0 0 0 0 0 0 0 0 0 0 0 1 3 4 4 3 2 3 5 6 8 9 9 10 15 24 34 45 54 56 53 50 49 47 47 47 45 42 39 37 35 35
0 0 0 0 0 0 0 0 0 0 0 0 0 1 2 3 3 4 4 5 6 7 10 12 13 13 14 20 28 38 48 51 50 48 47 47 47 48 46 43 41 38 34 31
0 0 0 0 0 0 0 0 0 0 0 0 0 1 2 2 3 4 5 6 7 8 11 14 17 18 19 21 26 34 41 46 47 46 45 45 46 46 44 42 39 36 31 28
0 0 0 0 0 0 0 0 0 0 0 0 0 1 1 1 2 4 6 7 10 13 14 17 21 24 27 29 32 37 42 43 43 42 42 42 42 42 41 40 36 32 28 25
0 0 0 0 0 0 0 0 0 0 0 0 0 0 0 0 2 5 7 10 14 17 19 22 27 33 37 39 40 42 43 42 40 40 39 39 40 39 38 37 33 28 24 22
0 0 0 0 0 0 0 0 0 0 0 0 0 1 1 1 3 6 10 14 17 20 24 28 32 38 42 42 43 44 44 40 39 39 37 37 39 40 38 35 31 26 23 21
0 0 0 0 0 0 0 0 0 0 0 0 1 1 1 2 3 5 9 14 18 22 26 31 35 39 41 41 41 44 44 43 42 39 36 36 39 40 38 34 30 28 26 23
0 0 0 0 0 0 1 1 1 1 1 1 2 3 4 4 3 4 7 13 18 23 27 33 37 39 41 41 43 44 44 45 45 42 39 38 37 37 35 32 30 28 27 26
0 0 0 0 0 1 2 2 2 3 4 3 3 4 7 7 5 3 6 15 22 27 33 37 39 40 42 45 47 46 43 42 42 42 41 38 36 34 31 28 26 25 25 24
0 0 0 0 0 1 2 3 3 4 5 4 3 4 6 8 6 7 12 22 29 34 40 44 43 43 44 48 49 45 39 36 35 37 37 36 33 31 29 26 25 24 23 23
0 0 0 0 0 1 2 3 2 3 4 4 3 4 6 8 11 16 23 31 36 39 42 46 46 46 47 48 47 42 35 32 31 31 31 31 31 29 27 26 25 24 23 23
0 0 0 0 0 1 2 3 4 5 6 7 7 8 11 16 21 27 31 35 38 39 40 42 43 45 48 49 47 41 35 33 31 29 28 28 28 25 23 24 24 21 19 19
1 1 0 0 1 2 2 3 7 11 12 10 10 12 16 21 26 29 30 30 31 33 35 37 39 43 46 49 47 44 40 37 34 30 28 27 25 21 19 21 21 18 16 15
1 1 2 2 3 4 4 5 9 12 11 9 9 12 16 19 23 25 24 23 23 26 29 31 35 39 43 45 46 46 44 41 37 33 30 26 22 18 17 18 18 17 15 13
2 3 5 5 4 4 5 7 8 8 7 6 6 8 12 16 20 21 22 23 23 24 26 28 32 36 40 41 42 43 44 41 37 33 29 24 20 17 15 15 15 14 13 11
2 4 6 6 4 3 5 6 7 6 5 5 7 8 11 15 18 21 24 26 24 25 27 29 31 34 36 37 36 35 36 36 33 29 26 22 19 17 15 14 13 12 10 9
1 2 4 4 3 3 5 6 6 6 5 6 8 9 12 15 17 19 23 25 25 26 28 29 30 32 33 34 32 29 28 30 29 27 24 20 17 16 16 13 11 10 8 8